Regional Weather Roundup
Issued by NWS

Home | Current Version | Previous Version | Graphics & Text | Print | Product List | Glossary On
Versions: 1 2 3 4 5 6 7 8 9 10 11 12 13 14 15 16 17 18 19 20 21 22 23 24 25 26 27 28 29 30 31 32 33 34 35 36 37 38 39 40 41 42 43 44 45 46 47 48 49 50
000
ASUS43 KMKX 310000
RWRWI

WISCONSIN REGIONAL WEATHER ROUNDUP
NATIONAL WEATHER SERVICE MILWAUKEE/SULLIVAN WI
700 PM CDT THU OCT 30 2014

NOTE: "FAIR" INDICATES FEW OR NO CLOUDS BELOW 12,000 FEET WITH NO
SIGNIFICANT WEATHER AND/OR OBSTRUCTIONS TO VISIBILITY.

WIZ001-002-006>008-014>016-023>028-310100-
NORTHWEST WISCONSIN

CITY           SKY/WX    TMP DP  RH WIND       PRES   REMARKS
SUPERIOR ARPT  RAIN      37  32  81 N21G30    30.19R WCI  27
ASHLAND        CLOUDY    38  33  82 NW13G22   30.12R WCI  30
6HR MIN TEMP:  38; 6HR MAX TEMP:  43; 6HR PCP:  0.01;

HAYWARD        CLOUDY    37  33  85 NW6       30.12R WCI  32
6HR MIN TEMP:  37; 6HR MAX TEMP:  43; 6HR PCP: TRACE;

SIREN          CLOUDY    40  30  67 NW13G24   30.17R WCI  32
CUMBERLAND     CLOUDY    39  30  70 NW12      30.13R WCI  32
RICE LAKE      CLOUDY    42  32  69 NW9       30.14R
CHETEK         CLOUDY    41  33  74 W9        30.12S
LADYSMITH      CLOUDY    42  32  69 NW16G23   30.12R
EAU CLAIRE     CLOUDY    43  30  61 NW10      30.13R
MENOMONIE      CLOUDY    43  33  67 NW10      30.14R
NEW RICHMOND   CLOUDY    42  32  68 NW13      30.17R
OSCEOLA        CLOUDY    42  32  66 NW12G22   30.20R
$$

WIZ003>005-009-010-017-018-310100-
NORTH CENTRAL WISCONSIN

CITY           SKY/WX    TMP DP  RH WIND       PRES   REMARKS
MANITOWISH WTR CLOUDY    36  32  84 W9G16     30.04S WCI  29
ARBOR VITAE    CLOUDY    39  32  75 NW8       30.03S WCI  34
WOODRUFF       CLOUDY    39  32  75 NW8       30.03S WCI  34
RHINELANDER    CLOUDY    38  31  76 NW7       30.04R WCI  33
6HR MIN TEMP:  38; 6HR MAX TEMP:  41;

EAGLE RIVER    LGT RAIN  37  31  78 NW10      30.02R WCI  30
LAND O LAKES   CLOUDY    37  34  87 W8        30.02S WCI  31
PHILLIPS       DRIZZLE   37  32  81 NW6       30.07R WCI  33
TOMAHAWK       CLOUDY    39  31  72 CALM      30.05R
MEDFORD        CLOUDY    39  33  78 NW9       30.06R WCI  33
MERRILL        CLOUDY    42  32  69 NW8       30.05R
$$

WIZ029-030-035-036-043>047-310100-
CENTRAL WISCONSIN

CITY           SKY/WX    TMP DP  RH WIND       PRES   REMARKS
WAUSAU         CLOUDY    42  33  70 NW13      30.04R
6HR MIN TEMP:  42; 6HR MAX TEMP:  45;

MOSINEE        CLOUDY    41  36  81 NW13      30.06R
MARSHFIELD     CLOUDY    44  35  70 NW18G24   30.06R
6HR MIN TEMP:  44; 6HR MAX TEMP:  48;

STEVENS POINT  CLOUDY    42  32  66 W6        30.04S
WAUPACA        CLOUDY    48  34  57 W8        30.03S
WAUTOMA        NOT AVBL
WISC RAPIDS    CLOUDY    45  34  65 NW8       30.07R
6HR MIN TEMP:  45; 6HR MAX TEMP:  51;

CAMP DOUGLAS   CLOUDY    45  41  87 W7        30.06S
$$

WIZ011>013-019>022-031-037>040-048>050-310100-
NORTHEAST WISCONSIN

CITY           SKY/WX    TMP DP  RH WIND       PRES   REMARKS
ANTIGO         CLOUDY    40  32  74 NW7       30.03R WCI  35
SHAWANO        CLOUDY    47  35  63 W3        30.03R
OCONTO         CLOUDY    46  34  64 NW6       30.01S
STURGEON BAY   CLOUDY    45  34  65 SW3       30.00F
6HR MIN TEMP:  45; 6HR MAX TEMP:  45;

GREEN BAY      CLOUDY    46  37  71 W6        30.02R
6HR MIN TEMP:  46; 6HR MAX TEMP:  48;

MANITOWOC      NOT AVBL
APPLETON       MOCLDY    46  34  61 W8        30.02S
CLINTONVILLE   CLOUDY    45  32  61 W9        30.02S
OSHKOSH        CLOUDY    47  37  68 W3        30.02S
6HR MIN TEMP:  47; 6HR MAX TEMP:  50;

$$

WIZ032>034-041-042-053>061-310100-
SOUTHWEST WISCONSIN

CITY           SKY/WX    TMP DP  RH WIND       PRES   REMARKS
LA CROSSE      CLOUDY    45  38  76 CALM      30.09S
6HR MIN TEMP:  45; 6HR MAX TEMP:  47; 6HR PCP: TRACE;

SPARTA         CLOUDY    45  36  72 SW3       30.08S
VIROQUA        CLOUDY    43  37  79 CALM      30.08R
BOSCOBEL       CLOUDY    49  37  63 CALM      30.09S
6HR MIN TEMP:  49; 6HR MAX TEMP:  51;

PRAIRIE DU CHI CLOUDY    47  38  69 NW3       30.09R
PLATTEVILLE    MOCLDY    47  38  69 CALM      30.08S
$$

WIZ056-057-062-063-064-067-068-310100-
SOUTH CENTRAL WISCONSIN

CITY           SKY/WX    TMP DP  RH WIND       PRES   REMARKS
REEDSBURG      CLOUDY    45  37  72 CALM      30.06S
BARABOO/DELLS  CLOUDY    45  35  68 W3        30.06R
LONE ROCK      NOT AVBL
MINERAL POINT  CLOUDY    46  37  71 CALM      30.07R
MADISON        CLOUDY    46  35  65 CALM      30.06R
6HR MIN TEMP:  45; 6HR MAX TEMP:  51; 6HR PCP: TRACE;

MIDDLETON      CLOUDY    45  36  68 CALM      30.06S
WATERTOWN      CLOUDY    46  36  67 W3        30.05R
MONROE         CLOUDY    46  37  71 NW3       30.06S
JANESVILLE     CLOUDY    48  36  61 W5        30.06R
$$

WIZ051-052-058>065-066-070>072-310100-
SOUTHEAST WISCONSIN

CITY           SKY/WX    TMP DP  RH WIND       PRES   REMARKS
MILWAUKEE      MOCLDY    49  33  54 W6        30.05S
6HR MIN TEMP:  49; 6HR MAX TEMP:  51;

WAUKESHA       CLOUDY    45  34  65 SW8       30.05S
MILWAUKEE/TIMM NOT AVBL
RACINE         CLOUDY    49  34  56 W3        30.06S
6HR MIN TEMP:  48; 6HR MAX TEMP:  52;

BURLINGTON     MOCLDY    45  33  62 W3        30.05S
KENOSHA        MOCLDY    46  35  65 W5        30.05S
6HR MIN TEMP:  46; 6HR MAX TEMP:  52;

FOND DU LAC    CLOUDY    46  35  65 SW6       30.03S
6HR MIN TEMP:  46; 6HR MAX TEMP:  51;

SHEBOYGAN      CLOUDY    45  36  70 W6        30.03R
6HR MIN TEMP:  45; 6HR MAX TEMP:  50;

WEST BEND      CLOUDY    45  32  61 SW3       30.03S
JUNEAU         CLOUDY    45  36  71 W6        30.06R
$$

LSZ147-162-310100-
LAKE SUPERIOR

STATION/POSITION TIME  TEMP    WIND        PRES    WAVE
                       AIR SEA DIR/SP/G            HT/PER
                 (UTC) (F)     (DEG/KT/KT) (MB)    (FT/S)
W MID LAKE BUOY  2250   41 45  330/ 17/ 23 1017.5R   3/ 4
DEVILS ISLAND    2300   40     320/ 22/ 25 1019.3R
PORT WING        2314   42     310/ 22/ 26 1020.3R
SAXON HARBOR     2300   42     300/ 14/ 23 1018.3
$$

LMZ867-665-643>646-310100-
LAKE MICHIGAN

STATION/POSITION TIME  TEMP    WIND        PRES    WAVE
                       AIR SEA DIR/SP/G            HT/PER
                 (UTC) (F)     (DEG/KT/KT) (MB)    (FT/S)
CHAMBERS ISLAND  2300   46     240/  4/  8 1016.3R
N MID LAKE BUOY  2250   46 51  270/ 12/ 16 1015.8S   2/ 4
NORTHPORT PIER   2340   46     300/  6/  8 1015.6S
KEWAUNEE LAKESHO 2300   46     270/  4/  5 1015.4F
SHEBOYGAN LAKESH 2300   49 50  260/  6/  6 1017.5F
PORT WASHINGTON  2300   50     280/  4/  6 1017.6F
ATWATER BUOY     2300   50     270/  8/ 10 1018.3F
MILWAUKEE LAKESH 2300   50     290/  7/  9   N/A
S MID LAKE BUOY  2250   50 53  230/  8/ 10 1017.9F   1/ 3
KENOSHA   LAKESH 2300   50     300/  4/  6 1017.6S
$$

TC  - TEMPERATURE IN CELSIUS
VSB - VISIBILITY IN STATUTE MILES
WCI - WIND CHILL INDEX
HX  - HEAT INDEX




USA.gov is the U.S. government's official web portal to all federal, state and local government web resources and services.